Saint Bonnet de Bellac- Haute Vienne - France
Donnes mto: vendredi, 01/06/2012
Date Horaire Temp. E. Hum. E. P.atmo. Pluie Vent Direction Direction Ensoleilleme Solaire P. de rose Temp au vent Rafales
01/06/2012 00:00 14,8 C 81 % 1020,5 hPa 0,0 mm 0,0 km/h (0 Bft) N-NO 337 0 min 0 W/m 11,6 C 14,8 C 0,0 km/h (0 Bft)
01/06/2012 00:10 14,6 C 82 % 1020,3 hPa 0,0 mm 0,0 km/h (0 Bft) N-NO 337 0 min 0 W/m 11,6 C 14,6 C 0,0 km/h (0 Bft)
01/06/2012 00:20 14,5 C 83 % 1020,3 hPa 0,0 mm 0,0 km/h (0 Bft) N-NO 337 0 min 0 W/m 11,6 C 14,5 C 0,0 km/h (0 Bft)
01/06/2012 00:30 14,3 C 83 % 1020,2 hPa 0,0 mm 0,0 km/h (0 Bft) N-NO 337 0 min 0 W/m 11,5 C 14,3 C 0,0 km/h (0 Bft)
01/06/2012 00:40 14,3 C 84 % 1020,0 hPa 0,0 mm 0,0 km/h (0 Bft) N-NO 337 0 min 0 W/m 11,6 C 14,3 C 0,0 km/h (0 Bft)
01/06/2012 00:50 14,1 C 83 % 1020,0 hPa 0,0 mm 0,0 km/h (0 Bft) N-NO 337 0 min 0 W/m 11,3 C 14,1 C 0,0 km/h (0 Bft)
01/06/2012 01:00 14,0 C 84 % 1019,9 hPa 0,0 mm 0,0 km/h (0 Bft) N-NO 337 0 min 0 W/m 11,3 C 14,0 C 0,0 km/h (0 Bft)
01/06/2012 01:10 13,9 C 85 % 1020,0 hPa 0,0 mm 0,0 km/h (0 Bft) N-NO 337 0 min 0 W/m 11,4 C 13,9 C 0,0 km/h (0 Bft)
01/06/2012 01:20 13,8 C 85 % 1019,9 hPa 0,0 mm 0,0 km/h (0 Bft) N-NO 337 0 min 0 W/m 11,3 C 13,8 C 0,0 km/h (0 Bft)
01/06/2012 01:30 13,6 C 85 % 1019,8 hPa 0,0 mm 0,0 km/h (0 Bft) N-NO 337 0 min 0 W/m 11,1 C 13,6 C 0,0 km/h (0 Bft)
01/06/2012 01:40 13,6 C 85 % 1019,8 hPa 0,0 mm 0,0 km/h (0 Bft) N-NO 337 0 min 0 W/m 11,1 C 13,6 C 0,0 km/h (0 Bft)
01/06/2012 01:50 13,5 C 86 % 1019,7 hPa 0,0 mm 0,0 km/h (0 Bft) N-NO 337 0 min 0 W/m 11,2 C 13,5 C 0,0 km/h (0 Bft)
01/06/2012 02:00 13,5 C 86 % 1019,7 hPa 0,0 mm 0,0 km/h (0 Bft) N-NO 337 0 min 0 W/m 11,2 C 13,5 C 0,0 km/h (0 Bft)
01/06/2012 02:10 13,3 C 86 % 1019,6 hPa 0,0 mm 0,0 km/h (0 Bft) N-NO 337 0 min 0 W/m 11,0 C 13,3 C 0,0 km/h (0 Bft)
01/06/2012 02:20 13,1 C 87 % 1019,7 hPa 0,0 mm 0,0 km/h (0 Bft) N-NO 337 0 min 0 W/m 11,0 C 13,1 C 0,0 km/h (0 Bft)
01/06/2012 02:30 12,9 C 87 % 1019,7 hPa 0,0 mm 0,0 km/h (0 Bft) N-NO 337 0 min 0 W/m 10,8 C 12,9 C 0,0 km/h (0 Bft)
01/06/2012 02:40 12,8 C 87 % 1019,7 hPa 0,0 mm 0,0 km/h (0 Bft) N-NO 337 0 min 0 W/m 10,7 C 12,8 C 0,0 km/h (0 Bft)
01/06/2012 02:50 12,6 C 87 % 1019,7 hPa 0,0 mm 0,0 km/h (0 Bft) N-NO 337 0 min 0 W/m 10,5 C 12,6 C 0,0 km/h (0 Bft)
01/06/2012 03:02 12,5 C 87 % 1019,8 hPa 0,0 mm 0,0 km/h (0 Bft) N-NO 337 0 min 0 W/m 10,4 C 12,5 C 0,0 km/h (0 Bft)
01/06/2012 03:10 12,4 C 87 % 1019,8 hPa 0,0 mm 0,0 km/h (0 Bft) N-NO 337 0 min 0 W/m 10,3 C 12,4 C 0,0 km/h (0 Bft)
01/06/2012 03:20 12,3 C 88 % 1019,7 hPa 0,0 mm 0,0 km/h (0 Bft) N-NO 337 0 min 0 W/m 10,4 C 12,3 C 0,0 km/h (0 Bft)
01/06/2012 03:30 12,4 C 88 % 1019,6 hPa 0,0 mm 0,0 km/h (0 Bft) N-NO 337 0 min 0 W/m 10,5 C 12,4 C 0,0 km/h (0 Bft)
01/06/2012 03:40 12,5 C 88 % 1019,5 hPa 0,0 mm 0,0 km/h (0 Bft) N-NO 337 0 min 0 W/m 10,6 C 12,5 C 0,0 km/h (0 Bft)
01/06/2012 03:50 12,6 C 88 % 1019,4 hPa 0,0 mm 0,0 km/h (0 Bft) N-NO 337 0 min 0 W/m 10,7 C 12,6 C 0,0 km/h (0 Bft)
01/06/2012 04:00 12,5 C 89 % 1019,3 hPa 0,0 mm 0,0 km/h (0 Bft) N-NO 337 0 min 0 W/m 10,7 C 12,5 C 0,0 km/h (0 Bft)
01/06/2012 04:10 12,3 C 89 % 1019,3 hPa 0,0 mm 0,0 km/h (0 Bft) N-NO 337 0 min 0 W/m 10,5 C 12,3 C 0,0 km/h (0 Bft)
01/06/2012 04:20 11,9 C 89 % 1019,2 hPa 0,0 mm 0,0 km/h (0 Bft) N-NO 337 0 min 0 W/m 10,1 C 11,9 C 0,0 km/h (0 Bft)
01/06/2012 04:30 11,6 C 89 % 1019,1 hPa 0,0 mm 0,0 km/h (0 Bft) N-NO 337 0 min 0 W/m 9,8 C 11,6 C 0,0 km/h (0 Bft)
01/06/2012 04:40 11,5 C 90 % 1019,0 hPa 0,0 mm 0,0 km/h (0 Bft) N-NO 337 0 min 0 W/m 9,9 C 11,5 C 0,0 km/h (0 Bft)
01/06/2012 04:50 11,6 C 90 % 1018,9 hPa 0,0 mm 0,0 km/h (0 Bft) N-NO 337 0 min 0 W/m 10,0 C 11,6 C 0,0 km/h (0 Bft)
01/06/2012 05:00 11,4 C 90 % 1018,8 hPa 0,0 mm 0,0 km/h (0 Bft) N-NO 337 0 min 0 W/m 9,8 C 11,4 C 0,0 km/h (0 Bft)
01/06/2012 05:10 11,4 C 90 % 1018,9 hPa 0,0 mm 0,0 km/h (0 Bft) E-SE 112 0 min 0 W/m 9,8 C 11,4 C 0,0 km/h (0 Bft)
01/06/2012 05:20 11,5 C 90 % 1018,9 hPa 0,0 mm 0,0 km/h (0 Bft) E-SE 112 0 min 0 W/m 9,9 C 11,5 C 0,0 km/h (0 Bft)
01/06/2012 05:30 11,4 C 90 % 1018,9 hPa 0,0 mm 0,0 km/h (0 Bft) E-SE 112 0 min 0 W/m 9,8 C 11,4 C 0,0 km/h (0 Bft)
01/06/2012 05:40 11,4 C 90 % 1019,0 hPa 0,0 mm 0,0 km/h (0 Bft) E-SE 112 0 min 0 W/m 9,8 C 11,4 C 0,0 km/h (0 Bft)
01/06/2012 05:50 11,2 C 90 % 1019,0 hPa 0,0 mm 0,0 km/h (0 Bft) E-SE 112 0 min 0 W/m 9,6 C 11,2 C 0,0 km/h (0 Bft)
01/06/2012 06:00 11,2 C 90 % 1019,1 hPa 0,0 mm 0,0 km/h (0 Bft) E-SE 112 0 min 0 W/m 9,6 C 11,2 C 0,0 km/h (0 Bft)
01/06/2012 06:10 11,2 C 90 % 1018,9 hPa 0,0 mm 0,0 km/h (0 Bft) E-SE 112 0 min 0 W/m 9,6 C 11,2 C 0,0 km/h (0 Bft)
01/06/2012 06:20 11,1 C 90 % 1018,9 hPa 0,0 mm 0,0 km/h (0 Bft) E-SE 112 0 min 0 W/m 9,5 C 11,1 C 0,0 km/h (0 Bft)
01/06/2012 06:30 11,1 C 90 % 1018,9 hPa 0,0 mm 0,0 km/h (0 Bft) E-SE 112 0 min 0 W/m 9,5 C 11,1 C 0,0 km/h (0 Bft)
01/06/2012 06:40 11,3 C 90 % 1018,9 hPa 0,0 mm 0,0 km/h (0 Bft) E-SE 112 0 min 0 W/m 9,7 C 11,3 C 0,0 km/h (0 Bft)
01/06/2012 06:50 11,4 C 91 % 1019,0 hPa 0,0 mm 0,0 km/h (0 Bft) E-SE 112 0 min 0 W/m 10,0 C 11,4 C 0,0 km/h (0 Bft)
01/06/2012 07:00 11,6 C 91 % 1019,0 hPa 0,0 mm 0,0 km/h (0 Bft) E-SE 112 0 min 0 W/m 10,2 C 11,6 C 0,0 km/h (0 Bft)
01/06/2012 07:10 11,8 C 91 % 1018,9 hPa 0,0 mm 0,0 km/h (0 Bft) E 90 0 min 0 W/m 10,4 C 11,8 C 0,0 km/h (0 Bft)
01/06/2012 07:20 12,0 C 91 % 1018,9 hPa 0,0 mm 0,0 km/h (0 Bft) E 90 0 min 0 W/m 10,6 C 12,0 C 3,2 km/h (1 Bft)
01/06/2012 07:30 12,2 C 91 % 1018,8 hPa 0,0 mm 0,0 km/h (0 Bft) E 90 0 min 0 W/m 10,8 C 12,2 C 0,0 km/h (0 Bft)
01/06/2012 07:40 12,4 C 91 % 1018,9 hPa 0,0 mm 0,0 km/h (0 Bft) E 90 0 min 0 W/m 11,0 C 12,4 C 0,0 km/h (0 Bft)
01/06/2012 07:50 12,8 C 92 % 1018,9 hPa 0,0 mm 0,0 km/h (0 Bft) E 90 0 min 0 W/m 11,5 C 12,8 C 0,0 km/h (0 Bft)
01/06/2012 08:00 13,1 C 92 % 1018,9 hPa 0,0 mm 0,0 km/h (0 Bft) E 90 0 min 0 W/m 11,8 C 13,1 C 0,0 km/h (0 Bft)
01/06/2012 08:10 13,6 C 92 % 1018,9 hPa 0,0 mm 0,0 km/h (0 Bft) E 90 0 min 0 W/m 12,3 C 13,6 C 0,0 km/h (0 Bft)
01/06/2012 08:20 14,2 C 92 % 1018,8 hPa 0,0 mm 0,0 km/h (0 Bft) E-NE 67 0 min 0 W/m 12,9 C 14,2 C 0,0 km/h (0 Bft)
01/06/2012 08:30 14,8 C 91 % 1018,8 hPa 0,0 mm 1,1 km/h (1 Bft) E-NE 67 0 min 0 W/m 13,3 C 14,8 C 3,2 km/h (1 Bft)
01/06/2012 08:40 15,4 C 91 % 1018,8 hPa 0,0 mm 0,4 km/h (0 Bft) E-NE 67 0 min 0 W/m 13,9 C 15,4 C 3,2 km/h (1 Bft)
01/06/2012 08:50 16,0 C 91 % 1018,8 hPa 0,0 mm 0,4 km/h (0 Bft) E-NE 67 0 min 0 W/m 14,5 C 16,0 C 0,4 km/h (0 Bft)
01/06/2012 09:00 16,8 C 89 % 1018,8 hPa 0,0 mm 1,4 km/h (1 Bft) E-NE 67 0 min 0 W/m 15,0 C 16,8 C 4,0 km/h (1 Bft)
01/06/2012 09:10 17,5 C 87 % 1018,7 hPa 0,0 mm 2,2 km/h (1 Bft) NE 45 0 min 0 W/m 15,3 C 17,5 C 4,3 km/h (1 Bft)
01/06/2012 09:20 18,2 C 84 % 1018,9 hPa 0,0 mm 2,2 km/h (1 Bft) E-NE 67 0 min 0 W/m 15,4 C 18,2 C 3,6 km/h (1 Bft)
01/06/2012 09:30 18,8 C 81 % 1019,0 hPa 0,0 mm 5,0 km/h (1 Bft) E 90 0 min 0 W/m 15,5 C 18,8 C 7,6 km/h (2 Bft)
01/06/2012 09:40 19,4 C 77 % 1019,0 hPa 0,0 mm 2,2 km/h (1 Bft) N-NE 22 0 min 0 W/m 15,3 C 19,4 C 4,3 km/h (1 Bft)
01/06/2012 09:50 19,9 C 75 % 1018,9 hPa 0,0 mm 8,6 km/h (2 Bft) N-NE 22 0 min 0 W/m 15,3 C 19,9 C 11,9 km/h (2 Bft)
01/06/2012 10:00 20,4 C 73 % 1018,9 hPa 0,0 mm 4,3 km/h (1 Bft) E-NE 67 0 min 0 W/m 15,4 C 20,4 C 10,8 km/h (2 Bft)
01/06/2012 10:10 20,8 C 72 % 1018,9 hPa 0,0 mm 1,8 km/h (1 Bft) E 90 0 min 0 W/m 15,6 C 20,8 C 4,0 km/h (1 Bft)
01/06/2012 10:20 21,3 C 70 % 1018,8 hPa 0,0 mm 8,6 km/h (2 Bft) E-NE 67 0 min 0 W/m 15,6 C 21,3 C 11,9 km/h (2 Bft)
01/06/2012 10:30 21,5 C 66 % 1018,8 hPa 0,0 mm 8,3 km/h (2 Bft) N 360 0 min 0 W/m 14,9 C 21,5 C 16,2 km/h (3 Bft)
01/06/2012 10:40 21,6 C 65 % 1018,7 hPa 0,0 mm 6,1 km/h (2 Bft) N-NE 22 0 min 0 W/m 14,7 C 21,6 C 6,1 km/h (2 Bft)
01/06/2012 10:50 21,8 C 65 % 1018,6 hPa 0,0 mm 4,3 km/h (1 Bft) NE 45 0 min 0 W/m 14,9 C 21,8 C 6,5 km/h (2 Bft)
01/06/2012 11:00 22,0 C 64 % 1018,6 hPa 0,0 mm 3,6 km/h (1 Bft) N-NE 22 0 min 0 W/m 14,9 C 22,0 C 7,9 km/h (2 Bft)
01/06/2012 11:10 22,4 C 64 % 1018,6 hPa 0,0 mm 4,3 km/h (1 Bft) E-NE 67 0 min 0 W/m 15,2 C 22,4 C 8,3 km/h (2 Bft)
01/06/2012 11:20 22,7 C 61 % 1018,6 hPa 0,0 mm 9,4 km/h (2 Bft) E-NE 67 0 min 0 W/m 14,8 C 22,7 C 15,1 km/h (3 Bft)
01/06/2012 11:30 22,9 C 59 % 1018,6 hPa 0,0 mm 8,3 km/h (2 Bft) N-NE 22 0 min 0 W/m 14,5 C 22,9 C 11,9 km/h (2 Bft)
01/06/2012 11:40 23,1 C 59 % 1018,8 hPa 0,0 mm 8,3 km/h (2 Bft) N-NE 22 0 min 0 W/m 14,6 C 23,1 C 12,6 km/h (3 Bft)
01/06/2012 11:50 23,3 C 58 % 1018,6 hPa 0,0 mm 1,8 km/h (1 Bft) E-NE 67 0 min 0 W/m 14,6 C 23,3 C 3,6 km/h (1 Bft)
01/06/2012 12:00 23,6 C 59 % 1018,6 hPa 0,0 mm 2,5 km/h (1 Bft) NE 45 0 min 0 W/m 15,1 C 23,6 C 7,2 km/h (2 Bft)
01/06/2012 12:10 24,0 C 57 % 1018,6 hPa 0,0 mm 4,3 km/h (1 Bft) N-NE 22 0 min 0 W/m 14,9 C 24,0 C 7,9 km/h (2 Bft)
01/06/2012 12:20 24,3 C 56 % 1018,6 hPa 0,0 mm 0,7 km/h (0 Bft) NE 45 0 min 0 W/m 14,9 C 24,3 C 3,2 km/h (1 Bft)
01/06/2012 12:30 24,5 C 57 % 1018,6 hPa 0,0 mm 5,0 km/h (1 Bft) NE 45 0 min 0 W/m 15,4 C 24,5 C 5,8 km/h (2 Bft)
01/06/2012 12:40 24,8 C 54 % 1018,4 hPa 0,0 mm 6,5 km/h (2 Bft) NE 45 0 min 0 W/m 14,8 C 24,8 C 9,4 km/h (2 Bft)
01/06/2012 12:50 24,8 C 54 % 1018,3 hPa 0,0 mm 6,1 km/h (2 Bft) NE 45 0 min 0 W/m 14,8 C 24,8 C 7,9 km/h (2 Bft)
01/06/2012 13:00 24,8 C 54 % 1018,2 hPa 0,0 mm 4,7 km/h (1 Bft) N-NE 22 0 min 0 W/m 14,8 C 24,8 C 4,7 km/h (1 Bft)
01/06/2012 13:10 25,0 C 53 % 1018,3 hPa 0,0 mm 5,8 km/h (2 Bft) NE 45 0 min 0 W/m 14,7 C 25,0 C 8,6 km/h (2 Bft)
01/06/2012 13:20 25,1 C 54 % 1018,2 hPa 0,0 mm 9,7 km/h (2 Bft) NE 45 0 min 0 W/m 15,1 C 25,1 C 9,7 km/h (2 Bft)
01/06/2012 13:30 25,1 C 53 % 1018,2 hPa 0,0 mm 4,0 km/h (1 Bft) NE 45 0 min 0 W/m 14,8 C 25,1 C 10,8 km/h (2 Bft)
01/06/2012 13:40 25,4 C 54 % 1018,1 hPa 0,0 mm 3,2 km/h (1 Bft) N-NE 22 0 min 0 W/m 15,4 C 25,4 C 3,2 km/h (1 Bft)
01/06/2012 13:50 25,5 C 54 % 1018,1 hPa 0,0 mm 2,5 km/h (1 Bft) N 360 0 min 0 W/m 15,5 C 25,5 C 4,0 km/h (1 Bft)
01/06/2012 14:00 25,7 C 54 % 1017,9 hPa 0,0 mm 4,7 km/h (1 Bft) NE 45 0 min 0 W/m 15,7 C 25,7 C 10,4 km/h (2 Bft)
01/06/2012 14:10 25,8 C 54 % 1017,8 hPa 0,0 mm 4,3 km/h (1 Bft) N-NE 22 0 min 0 W/m 15,8 C 25,8 C 12,6 km/h (3 Bft)
01/06/2012 14:20 25,9 C 54 % 1017,6 hPa 0,0 mm 4,7 km/h (1 Bft) NE 45 0 min 0 W/m 15,9 C 25,9 C 7,9 km/h (2 Bft)
01/06/2012 14:30 26,0 C 54 % 1017,5 hPa 0,0 mm 5,0 km/h (1 Bft) N-NO 337 0 min 0 W/m 16,0 C 26,0 C 7,9 km/h (2 Bft)
01/06/2012 14:40 26,1 C 55 % 1017,3 hPa 0,0 mm 9,7 km/h (2 Bft) NE 45 0 min 0 W/m 16,3 C 26,1 C 16,9 km/h (3 Bft)
01/06/2012 14:50 26,3 C 54 % 1017,3 hPa 0,0 mm 4,0 km/h (1 Bft) N-NE 22 0 min 0 W/m 16,2 C 26,3 C 7,2 km/h (2 Bft)
01/06/2012 15:00 26,3 C 54 % 1017,1 hPa 0,0 mm 9,0 km/h (2 Bft) NE 45 0 min 0 W/m 16,2 C 26,3 C 15,5 km/h (3 Bft)
01/06/2012 15:10 26,4 C 54 % 1017,1 hPa 0,0 mm 6,8 km/h (2 Bft) N-NE 22 0 min 0 W/m 16,3 C 26,4 C 10,8 km/h (2 Bft)
01/06/2012 15:20 26,4 C 54 % 1017,0 hPa 0,0 mm 3,2 km/h (1 Bft) NE 45 0 min 0 W/m 16,3 C 26,4 C 6,5 km/h (2 Bft)
01/06/2012 15:30 26,6 C 53 % 1016,9 hPa 0,0 mm 9,0 km/h (2 Bft) N-NE 22 0 min 0 W/m 16,2 C 26,6 C 11,2 km/h (2 Bft)
01/06/2012 15:40 26,8 C 54 % 1016,8 hPa 0,0 mm 3,2 km/h (1 Bft) N-NE 22 0 min 0 W/m 16,7 C 26,8 C 3,6 km/h (1 Bft)
01/06/2012 15:50 26,9 C 53 % 1016,8 hPa 0,0 mm 4,0 km/h (1 Bft) E-NE 67 0 min 0 W/m 16,5 C 26,9 C 11,5 km/h (2 Bft)
01/06/2012 16:00 27,1 C 53 % 1016,6 hPa 0,0 mm 3,6 km/h (1 Bft) N-NE 22 0 min 0 W/m 16,7 C 27,1 C 6,5 km/h (2 Bft)
01/06/2012 16:10 27,3 C 54 % 1016,5 hPa 0,0 mm 3,6 km/h (1 Bft) E-NE 67 0 min 0 W/m 17,2 C 27,3 C 6,1 km/h (2 Bft)
01/06/2012 16:20 27,5 C 52 % 1016,4 hPa 0,0 mm 6,1 km/h (2 Bft) N-NE 22 0 min 0 W/m 16,7 C 27,5 C 7,6 km/h (2 Bft)
01/06/2012 16:30 27,3 C 53 % 1016,3 hPa 0,0 mm 4,0 km/h (1 Bft) NO 315 0 min 0 W/m 16,9 C 27,3 C 8,3 km/h (2 Bft)
01/06/2012 16:40 27,4 C 52 % 1016,3 hPa 0,0 mm 8,3 km/h (2 Bft) NE 45 0 min 0 W/m 16,7 C 27,4 C 11,2 km/h (2 Bft)
01/06/2012 16:50 27,4 C 51 % 1016,0 hPa 0,0 mm 4,3 km/h (1 Bft) N-NE 22 0 min 0 W/m 16,3 C 27,4 C 6,1 km/h (2 Bft)
01/06/2012 17:00 27,4 C 51 % 1016,0 hPa 0,0 mm 7,9 km/h (2 Bft) N-NE 22 0 min 0 W/m 16,3 C 27,4 C 7,9 km/h (2 Bft)
01/06/2012 17:10 27,4 C 52 % 1016,0 hPa 0,0 mm 2,5 km/h (1 Bft) N 360 0 min 0 W/m 16,7 C 27,4 C 4,0 km/h (1 Bft)
01/06/2012 17:20 27,4 C 51 % 1015,9 hPa 0,0 mm 8,3 km/h (2 Bft) N-NE 22 0 min 0 W/m 16,3 C 27,4 C 11,5 km/h (2 Bft)
01/06/2012 17:30 27,3 C 51 % 1015,8 hPa 0,0 mm 4,3 km/h (1 Bft) N-NE 22 0 min 0 W/m 16,3 C 27,3 C 7,2 km/h (2 Bft)
01/06/2012 17:40 27,3 C 52 % 1015,7 hPa 0,0 mm 3,2 km/h (1 Bft) NE 45 0 min 0 W/m 16,6 C 27,3 C 6,5 km/h (2 Bft)
01/06/2012 17:50 27,4 C 52 % 1015,5 hPa 0,0 mm 1,4 km/h (1 Bft) NE 45 0 min 0 W/m 16,7 C 27,4 C 3,6 km/h (1 Bft)
01/06/2012 18:00 27,4 C 52 % 1015,5 hPa 0,0 mm 2,2 km/h (1 Bft) NE 45 0 min 0 W/m 16,7 C 27,4 C 6,5 km/h (2 Bft)
01/06/2012 18:10 27,6 C 52 % 1015,4 hPa 0,0 mm 3,6 km/h (1 Bft) NE 45 0 min 0 W/m 16,8 C 27,6 C 6,1 km/h (2 Bft)
01/06/2012 18:20 27,6 C 50 % 1015,3 hPa 0,0 mm 9,4 km/h (2 Bft) NE 45 0 min 0 W/m 16,2 C 27,6 C 9,4 km/h (2 Bft)
01/06/2012 18:30 27,4 C 52 % 1015,2 hPa 0,0 mm 1,4 km/h (1 Bft) N-NE 22 0 min 0 W/m 16,7 C 27,4 C 3,6 km/h (1 Bft)
01/06/2012 18:40 27,4 C 52 % 1015,2 hPa 0,0 mm 2,2 km/h (1 Bft) N-NE 22 0 min 0 W/m 16,7 C 27,4 C 2,2 km/h (1 Bft)
01/06/2012 18:50 27,4 C 52 % 1015,2 hPa 0,0 mm 3,6 km/h (1 Bft) NE 45 0 min 0 W/m 16,7 C 27,4 C 3,6 km/h (1 Bft)
01/06/2012 19:00 27,3 C 51 % 1015,1 hPa 0,0 mm 7,6 km/h (2 Bft) NE 45 0 min 0 W/m 16,3 C 27,3 C 10,8 km/h (2 Bft)
01/06/2012 19:10 27,1 C 52 % 1015,0 hPa 0,0 mm 4,0 km/h (1 Bft) N-NE 22 0 min 0 W/m 16,4 C 27,1 C 6,5 km/h (2 Bft)
01/06/2012 19:20 26,9 C 52 % 1015,1 hPa 0,0 mm 5,0 km/h (1 Bft) NE 45 0 min 0 W/m 16,2 C 26,9 C 10,4 km/h (2 Bft)
01/06/2012 19:30 26,8 C 53 % 1015,1 hPa 0,0 mm 1,1 km/h (1 Bft) NE 45 0 min 0 W/m 16,4 C 26,8 C 4,3 km/h (1 Bft)
01/06/2012 19:40 26,8 C 52 % 1015,0 hPa 0,0 mm 8,6 km/h (2 Bft) N-NE 22 0 min 0 W/m 16,1 C 26,8 C 10,1 km/h (2 Bft)
01/06/2012 19:50 26,4 C 53 % 1015,0 hPa 0,0 mm 5,4 km/h (2 Bft) N-NE 22 0 min 0 W/m 16,0 C 26,4 C 7,9 km/h (2 Bft)
01/06/2012 20:00 26,1 C 55 % 1014,9 hPa 0,0 mm 4,3 km/h (1 Bft) N-NE 22 0 min 0 W/m 16,3 C 26,1 C 6,5 km/h (2 Bft)
01/06/2012 20:10 25,5 C 56 % 1014,9 hPa 0,0 mm 1,1 km/h (1 Bft) N-NE 22 0 min 0 W/m 16,1 C 25,5 C 6,5 km/h (2 Bft)
01/06/2012 20:20 24,9 C 57 % 1014,8 hPa 0,0 mm 2,5 km/h (1 Bft) NE 45 0 min 0 W/m 15,8 C 24,9 C 4,0 km/h (1 Bft)
01/06/2012 20:30 24,4 C 59 % 1014,7 hPa 0,0 mm 4,3 km/h (1 Bft) N-NE 22 0 min 0 W/m 15,9 C 24,4 C 4,3 km/h (1 Bft)
01/06/2012 20:40 23,8 C 60 % 1014,7 hPa 0,0 mm 5,0 km/h (1 Bft) N-NE 22 0 min 0 W/m 15,6 C 23,8 C 6,1 km/h (2 Bft)
01/06/2012 20:50 23,4 C 61 % 1014,6 hPa 0,0 mm 3,2 km/h (1 Bft) N-NE 22 0 min 0 W/m 15,4 C 23,4 C 7,2 km/h (2 Bft)
01/06/2012 21:00 23,1 C 62 % 1014,5 hPa 0,0 mm 3,2 km/h (1 Bft) E-NE 67 0 min 0 W/m 15,4 C 23,1 C 4,0 km/h (1 Bft)
01/06/2012 21:10 22,6 C 64 % 1014,5 hPa 0,0 mm 1,8 km/h (1 Bft) NE 45 0 min 0 W/m 15,4 C 22,6 C 4,0 km/h (1 Bft)
01/06/2012 21:20 22,3 C 64 % 1014,5 hPa 0,0 mm 5,0 km/h (1 Bft) NE 45 0 min 0 W/m 15,2 C 22,3 C 5,0 km/h (1 Bft)
01/06/2012 21:30 21,9 C 65 % 1014,5 hPa 0,0 mm 1,8 km/h (1 Bft) N-NE 22 0 min 0 W/m 15,0 C 21,9 C 6,1 km/h (2 Bft)
01/06/2012 21:40 21,6 C 65 % 1014,4 hPa 0,0 mm 1,8 km/h (1 Bft) N-NE 22 0 min 0 W/m 14,7 C 21,6 C 6,1 km/h (2 Bft)
01/06/2012 21:50 21,2 C 67 % 1014,4 hPa 0,0 mm 2,5 km/h (1 Bft) N-NE 22 0 min 0 W/m 14,8 C 21,2 C 4,3 km/h (1 Bft)
01/06/2012 22:00 20,8 C 68 % 1014,5 hPa 0,0 mm 2,5 km/h (1 Bft) N-NE 22 0 min 0 W/m 14,7 C 20,8 C 4,3 km/h (1 Bft)
01/06/2012 22:10 20,6 C 69 % 1014,7 hPa 0,0 mm 0,0 km/h (0 Bft) N 360 0 min 0 W/m 14,7 C 20,6 C 0,0 km/h (0 Bft)
01/06/2012 22:20 20,2 C 70 % 1014,7 hPa 0,0 mm 0,4 km/h (0 Bft) N-NE 22 0 min 0 W/m 14,5 C 20,2 C 0,4 km/h (0 Bft)
01/06/2012 22:30 19,8 C 71 % 1014,7 hPa 0,0 mm 0,7 km/h (0 Bft) NE 45 0 min 0 W/m 14,4 C 19,8 C 4,0 km/h (1 Bft)
01/06/2012 22:40 19,5 C 71 % 1014,7 hPa 0,0 mm 0,4 km/h (0 Bft) NE 45 0 min 0 W/m 14,1 C 19,5 C 3,2 km/h (1 Bft)
01/06/2012 22:50 19,3 C 72 % 1014,6 hPa 0,0 mm 2,2 km/h (1 Bft) NE 45 0 min 0 W/m 14,1 C 19,3 C 3,2 km/h (1 Bft)
01/06/2012 23:00 19,1 C 72 % 1014,6 hPa 0,0 mm 0,4 km/h (0 Bft) N-NE 22 0 min 0 W/m 13,9 C 19,1 C 3,6 km/h (1 Bft)
01/06/2012 23:10 18,9 C 73 % 1014,5 hPa 0,0 mm 2,2 km/h (1 Bft) E-NE 67 0 min 0 W/m 13,9 C 18,9 C 4,0 km/h (1 Bft)
01/06/2012 23:20 18,7 C 74 % 1014,3 hPa 0,0 mm 0,7 km/h (0 Bft) N-NE 22 0 min 0 W/m 14,0 C 18,7 C 3,6 km/h (1 Bft)
_ Min-Heure 06:30 18:20 23:20 - 22:10 - - - - 06:30 06:30 22:10
Minimum _ 11,1 C 50 % 1014,3 hPa - 0,0 km/h (0 Bft) - - - - 9,5 C 11,1 C 0,0 km/h (0 Bft)
_ Max-Heure 18:20 08:20 00:00 23:20 14:40 - - 23:20 23:20 16:10 18:20 14:40
Maximum _ 27,6 C 92 % 1020,5 hPa 0,0 mm 9,7 km/h
NE (2 Bft)
- - 0 min 0 W/m 17,2 C 27,6 C 16,9 km/h
NE (3 Bft)
Moyenne _ 19,8 C 71 % 1017,7 hPa #0,0 mm 2,7 km/h (1 Bft) N-NE - #0 min. 0 W/m 13,8 C 19,8 C 4,4 km/h (1 Bft)
Saint Bonnet de Bellac- Haute Vienne - France